Location: Carr Mill
(33.2054°N, 85.9439°W)
Time: 23:15:46
(UTC+00:00)

SAR-Lupe-4 - Pass Details

Date: 29 October 2020
Orbit: 481 x 484 km, 98.2° (Epoch: 22 November)

Event Time Altitude Azimuth Distance (km) Brightness Sun altitude
Rises 23:24:47 0° 15° (NNE) 2,546 6.9 -7.0°
Reaches altitude 10° 23:26:52 10° 18° (NNE) 1,662 6.0 -7.4°
Maximum altitude 23:30:25 69° 102° (ESE) 516 3.5 -8.1°
Drops below altitude 10° 23:33:57 10° 186° (S) 1,651 6.5 -8.9°
Sets 23:36:00 0° 189° (S) 2,527 7.5 -9.3°
